User: anonymous   Login
Location: Caltech
(34.1382°N, 118.1253°W)
Time: 12:07:48
(UTC-08:00)
Language:

Cosmos 2237 Rocket - Orbit

View from above orbital plane
View from above orbital plane
View from above satellite
View from above satellite

Ground track
Ground track

The orbit data is extracted from the following two-line orbital elements,

1 22566U 93016B   14354.90928695  .00001018  00000-0  55126-3 0  2327
2 22566 071.0069 175.4460 0008425 072.3452 287.8590 14.14874578122659
Epoch (UTC): 20 December 2014 21:49:22
Eccentricity: 0.0008425
inclination: 71.0069°
perigee height: 836 km
apogee height: 849 km
right ascension of ascending node: 175.4460°
argument of perigee: 72.3452°
revolutions per day: 14.14874578
mean anomaly at epoch: 287.8590°
orbit number at epoch: 12265

The dashed part of the orbit path shows where the satellite is in the earth's shadow,  

DLR